Regional Weather Roundup
Issued by NWS Newport/Morehead, NC

Current Version | Previous Version | Text Only | Print | Product List | Glossary Off
Versions: 1 2 3 4 5 6 7 8 9 10 11 12 13 14 15 16 17 18 19 20 21 22 23 24 25 26 27 28 29 30 31 32 33 34 35 36 37 38 39 40 41 42 43 44 45 46 47 48 49 50
364 ASUS42 KMHX 201412 RWRMHX WEATHER ROUNDUP FOR EASTERN NORTH CAROLINA NATIONAL WEATHER SERVICE NEWPORT/MOREHEAD CITY NC 900 AM EST FRI JAN 20 2017 NOTE: "FAIR" INDICATES FEW OR NO CLOUDS BELOW 12,000 FEET WITH NO SIGNIFICANT WEATHER AND/OR OBSTRUCTIONS TO VISIBILITY NCZ015>017-031-032-045>047-102-103-201500- NORTH COAST CITY SKY/WX TMP DP RH WIND PRES REMARKS EDENTON CLOUDY 49 45 84 CALM 29.98F ELIZABETH CITY CLOUDY 47 44 90 E6 29.99S KITTY HAWK NOT AVBL MANTEO CLOUDY 49 47 92 E3 29.99R $$ NCZ045>047-081-094-103-104-201500- CENTRAL COAST CITY SKY/WX TMP DP RH WIND PRES REMARKS FRISCO CLOUDY 54 44 69 NE3 29.98S $$ NCZ095-097-098-100-101-201500- SOUTHERN COAST CITY SKY/WX TMP DP RH WIND PRES REMARKS BEAUFORT CLOUDY 55 52 89 CALM 29.97R CEDAR ISLAND NOT AVBL JACKSONVILLE CLOUDY 52 50 93 NE5 29.93F PINEY ISLAND CLOUDY N/A N/A N/A E9 29.97R WILMINGTON PTSUNNY 59 55 87 E7 29.92F $$ NCZ011>013-027>030-043-044-078>080-089-090>093-098-201500- COASTAL PLAIN CITY SKY/WX TMP DP RH WIND PRES REMARKS AHOSKIE N/A 43 41 93 CALM 29.97S CLINTON CLOUDY 52 49 91 CALM 29.93S ELIZABETHTOWN CLOUDY 53 51 91 SE3 29.93R GOLDSBORO CLOUDY 49 49 100 E6 29.92F GREENVILLE PTSUNNY 46 45 93 E3 29.97F HAVELOCK CLOUDY 53 49 86 CALM 29.98R KENANSVILLE CLOUDY 50 46 87 SE5 29.93S KINSTON CLOUDY 48 46 93 E7 29.95F NEW BERN CLOUDY 50 45 83 E6 29.97S RICHLANDS CLOUDY 51 47 86 E7 29.94F ROCKY MOUNT LGT RAIN 46 45 96 VRB5 29.94S WASHINGTON CLOUDY 46 43 88 E5 N/A WHITEVILLE CLOUDY 57 52 84 E3 29.92R $$ AMZ130-135-150-152-154-156-158-170-250-252-270-ANZ085-086-088-633-658-670-201500- MARINE OBSERVATIONS STATION/POSITION TIME TEMP WIND PRES WAVE SWELL AIR SEA DIR/SP/G HT/PER HT/PER (UTC) (F) (DEG/KT/KT) (MB) (FT/S) (FT/S) CHESAPEAKE LIGHT NOT AVBL 64 E VA BEACH 1250 52 56 290/ 4/ 6 1015.5 6/11 5/11 DUCK 1348 46 45 90/ 4/ 5 1015.1 2 E DUCK 1330 44 N/A 4/13 3/13 OREGON INLET 1342 47 49 40/ 3/ 5 1015.3 13E OREGON INLT NOT AVBL HATTERAS CG 1348 52 54 50/ 3/ 5 1014.7 DIAMOND BUOY 1250 61 76 100/ 6/ 10 1014.8 5/12 5/12 CAPE LOOKOUT 1300 63 100/ 9/ 10 1013.6 BEAUFORT LAB 1348 54 50 360/ 2/ 4 1013.6 30 SE NEW RVR IN 1308 62 64 80/ 6/ 8 1013.6 30 SE NEW RVR IN 1343 64 N/A 4/12 2/12 27 SE WRIGHTSVLE 1308 70 71 140/ 12/ 16 1012.9 5 SE WRIGHTSVLE 1308 58 20/ 6/ 8 1013.7 225 S CAPE HAT 1250 68 71 150/ 8/ 10 1015.1 6/12 5/12 41 SE CHARLESTON 1250 70 71 240/ 12/ 14 1012.9 2/ 9 2/ 9 $$

USA.gov is the U.S. government's official web portal to all federal, state and local government web resources and services.